RH
84 85 77 54 42 38 40 42 37 37 41 43 40 40 36 33 31 32 27 23 22 22 21 23 22 22 23 24 25 26 26 26 31 43 77 89 92 86 88 82 69 60 60 60
85 75 49 48 48 48 44 42 42 52 46 43 43 44 36 33 32 31 29 26 25 24 20 22 22 21 21 22 23 24 26 27 28 32 47 62 67 71 72 83 85 70 63 62
76 61 48 56 55 54 53 49 57 48 47 43 44 37 37 32 26 26 26 25 26 29 29 29 28 30 29 26 27 26 27 28 30 30 38 52 61 68 71 82 81 80 71 65
71 70 53 52 58 48 65 53 54 53 52 42 44 29 37 28 31 32 30 32 32 33 33 35 35 34 34 40 44 39 33 30 30 34 36 46 56 67 61 59 67 75 80 75
96 80 63 60 54 51 55 51 52 54 54 54 48 46 31 25 34 33 31 33 35 36 39 40 42 42 39 45 48 44 40 36 31 32 34 40 52 53 51 56 63 63 70 83
91 83 87 86 72 56 47 50 52 54 54 79 51 46 30 26 26 31 30 29 34 37 39 40 43 43 40 43 46 45 39 36 38 37 33 38 44 52 54 61 66 68 73 82
96 95 92 78 90 77 55 60 88 87 92 66 53 51 28 27 28 27 29 31 35 39 40 42 45 47 46 47 46 42 39 37 36 38 40 38 38 44 53 57 62 68 75 88
97 97 94 88 85 95 80 68 66 67 53 42 53 46 28 28 28 27 28 31 37 39 41 46 48 50 47 47 46 44 44 42 40 39 41 42 44 43 42 49 53 54 56 65
80 94 67 63 55 72 88 90 47 63 56 60 35 34 28 30 31 30 29 34 38 39 45 48 48 47 47 48 49 50 50 47 43 46 51 49 49 53 52 50 48 53 54 59
60 93 63 57 54 51 54 48 77 83 80 57 32 31 24 34 33 30 31 37 39 40 48 49 48 49 49 50 51 54 55 56 54 54 52 57 61 60 62 62 61 58 55 57
50 61 80 61 66 60 60 61 58 52 54 51 30 24 23 26 28 32 33 37 39 46 51 50 49 47 48 49 53 53 57 61 57 57 56 57 59 60 64 75 78 80 78 74
53 63 87 73 58 54 53 52 43 55 73 62 56 29 28 26 28 30 32 37 39 52 53 50 50 48 50 56 58 57 59 57 56 58 58 59 59 61 62 65 70 72 76 74
48 66 91 83 63 60 65 56 50 50 60 87 56 30 32 32 31 31 37 39 43 56 55 51 50 55 66 66 62 60 60 57 56 58 59 60 62 64 65 64 65 65 68 68
51 56 71 58 63 65 87 66 56 66 88 56 45 36 33 30 35 37 39 42 54 56 54 56 55 61 76 76 68 63 62 59 57 57 60 63 63 63 61 60 60 61 61 60
49 92 87 59 57 66 70 68 67 85 60 77 42 46 33 33 37 38 39 50 59 59 56 59 57 59 70 72 70 65 62 62 59 60 64 65 63 63 64 67 70 68 67 71
54 94 87 87 72 68 80 63 62 64 58 56 50 50 32 32 36 41 47 59 62 60 59 59 60 61 74 75 72 69 70 65 62 62 66 67 69 71 75 77 80 83 82 81
58 85 91 78 69 72 81 66 61 60 57 53 60 43 35 38 41 48 57 63 65 63 62 61 62 66 76 78 74 77 76 74 71 70 69 73 75 76 82 82 88 93 94 91
62 79 84 89 78 89 55 53 52 56 50 50 44 41 40 39 45 56 63 62 63 65 64 63 63 68 80 80 79 79 88 91 89 88 86 85 84 85 88 91 94 95 96 98
50 65 84 86 74 54 47 62 60 62 58 48 49 42 40 45 57 60 65 64 65 64 62 64 69 82 86 91 93 94 95 96 96 96 96 96 96 96 96 98 99 100 98 99
61 55 69 80 90 76 55 55 50 52 70 51 47 48 51 58 62 58 71 70 69 65 66 75 76 74 79 93 94 94 95 96 99 97 98 97 96 97 99 99 99 100 100 100
83 82 83 76 72 52 42 56 56 92 73 54 55 54 57 62 54 63 67 74 67 66 70 73 76 87 84 88 88 96 97 98 98 97 96 96 95 97 98 100 100 100 100 100
66 77 89 70 80 77 48 67 73 57 54 67 55 56 59 57 63 69 70 75 70 74 77 76 82 84 84 86 94 97 98 96 95 95 95 94 89 89 90 90 86 80 60 49
66 54 56 54 51 43 51 51 52 50 53 56 57 55 58 62 67 67 74 74 70 68 69 66 67 71 72 82 85 94 89 70 70 68 58 46 42 38 38 39 39 34 31 31
63 60 62 63 46 48 46 46 49 51 53 53 53 57 60 61 66 66 68 73 72 68 68 64 65 63 62 65 75 68 56 55 49 38 36 34 32 31 30 29 31 30 30 30
57 65 64 62 54 54 52 51 50 54 56 57 57 60 61 63 67 63 64 71 69 69 62 57 60 59 59 58 56 51 48 39 37 38 36 33 31 30 30 30 29 26 31 32
62 63 65 58 49 46 50 54 60 64 65 58 61 62 61 63 63 64 58 62 63 63 58 58 60 61 56 54 52 49 43 38 39 34 32 34 36 40 41 43 48 60 56 57
Wind_Speed
17 8 16 21 18 3 10 16 10 9 5 5 11 11 11 12 13 14 15 14 14 12 9 10 11 10 10 10 11 12 12 13 12 11 7 9 10 10 8 9 16 15 15 17
10 16 14 12 12 9 14 14 10 5 4 5 4 9 13 14 14 10 10 10 9 7 5 5 7 8 8 9 10 11 12 13 12 12 11 12 12 10 11 8 9 15 16 18
14 11 14 15 12 11 9 11 9 3 5 1 6 9 6 4 6 4 6 6 6 7 8 9 8 7 5 5 6 8 10 12 12 13 10 10 10 8 9 9 11 13 18 18
8 1 17 18 15 13 9 4 7 5 5 4 4 1 4 7 9 11 10 9 8 6 6 8 8 9 9 7 6 6 7 9 10 11 11 16 13 13 12 12 11 11 13 16
3 7 18 18 19 13 4 7 8 3 2 3 3 5 8 11 11 10 9 8 6 5 6 7 8 7 7 6 7 6 6 5 6 8 11 11 14 11 11 10 14 15 13 13
4 4 4 4 10 6 15 10 7 3 1 4 3 4 9 9 10 11 6 5 5 5 5 6 7 7 7 7 6 6 7 6 5 4 8 13 15 14 12 11 11 11 9 8
3 3 3 3 10 6 6 11 4 4 4 2 2 4 2 9 5 10 7 6 5 5 6 7 8 9 9 10 10 8 8 7 6 6 5 7 11 14 16 15 11 13 9 6
4 4 4 2 2 5 5 3 2 5 5 4 2 6 3 7 3 8 4 6 3 5 6 7 8 9 9 9 9 10 11 10 8 8 7 6 6 6 8 12 12 10 10 10
5 4 3 6 6 4 5 4 2 4 1 3 5 4 4 2 6 10 6 6 5 5 6 8 8 9 9 8 9 9 11 12 9 8 7 7 6 6 7 10 10 9 11 9
3 6 2 4 1 8 1 8 3 0 5 5 5 4 4 9 10 9 4 5 6 5 7 8 8 8 8 7 8 8 9 9 9 9 7 6 6 7 7 7 8 9 9 10
5 3 3 4 3 6 4 3 2 2 2 3 2 3 2 11 9 5 8 7 7 5 7 8 8 9 9 8 8 9 9 8 8 8 9 9 7 6 6 6 7 6 7 8
2 5 4 2 2 3 2 3 5 4 5 1 3 2 3 4 3 4 9 8 7 6 7 7 7 8 9 8 8 9 9 9 8 9 9 9 9 8 7 6 4 5 7 4
6 3 5 2 2 1 5 6 4 5 2 5 3 4 2 3 4 6 7 8 7 6 6 7 7 7 8 8 7 7 7 9 9 8 9 9 9 9 8 7 7 5 3 4
2 3 1 3 3 4 5 9 9 5 4 5 7 1 6 6 6 7 7 6 4 5 6 6 6 7 6 6 7 7 8 8 9 8 8 9 10 9 9 7 7 6 6 6
1 2 1 1 1 3 3 7 13 10 9 6 1 7 8 9 8 8 8 4 4 3 4 5 6 6 6 8 8 8 9 8 9 8 8 9 9 8 8 8 8 8 8 9
1 3 1 2 1 6 8 11 12 16 15 15 15 17 16 8 4 6 7 4 4 4 6 5 6 7 8 8 8 8 8 7 7 8 8 7 7 8 9 8 9 9 9 9
5 6 2 1 0 4 8 18 19 11 10 15 12 13 7 8 6 8 6 2 4 4 5 5 5 6 5 6 7 7 7 7 8 7 7 7 7 9 9 9 10 9 9 8
6 5 2 1 3 5 3 3 5 18 11 16 12 13 11 9 8 5 2 1 1 3 5 4 5 5 5 5 5 6 7 7 8 8 8 7 8 8 10 10 10 10 9 9
4 4 2 2 4 9 4 5 6 6 6 17 17 15 12 6 5 3 3 2 1 6 3 4 5 4 5 6 6 5 6 6 7 7 7 7 6 7 8 9 9 7 9 9
4 4 4 3 3 5 3 5 5 4 4 5 10 9 6 2 5 1 7 4 4 6 5 4 4 4 5 6 5 5 6 5 6 7 7 6 7 7 8 8 9 8 8 9
5 3 9 7 5 6 4 6 4 4 4 1 6 6 4 4 3 5 8 6 5 6 6 6 5 5 5 4 4 5 4 7 6 5 6 7 8 8 8 8 7 8 8 7
9 7 5 7 5 8 6 5 5 5 3 2 3 2 3 4 2 6 7 8 9 9 7 5 6 6 5 4 4 5 5 5 6 7 7 7 8 7 7 9 7 7 7 8
8 7 4 8 4 2 7 2 3 3 1 3 2 3 3 3 5 8 9 10 10 9 7 6 6 7 6 6 5 6 4 5 7 8 7 7 8 7 6 7 6 5 5 5
6 6 4 3 6 11 5 6 4 3 4 2 4 4 4 5 5 9 9 10 9 9 9 7 8 7 7 7 6 7 6 6 7 8 8 7 7 6 6 4 4 3 3 3
1 9 9 7 8 5 7 5 1 1 1 5 5 5 7 5 6 9 10 11 10 10 9 8 8 8 9 9 8 7 6 8 7 7 6 6 5 5 5 5 4 4 4 4
7 6 7 4 4 4 4 5 1 5 3 5 8 9 6 7 7 9 9 10 10 11 9 9 9 8 9 9 9 8 7 7 7 7 5 4 4 4 4 4 5 9 8 8
Wind_Direction
196 183 188 185 198 249 169 194 197 217 133 225 237 249 252 255 258 254 260 268 276 277 298 292 288 282 270 263 256 244 245 240 239 234 219 214 215 226 218 228 228 220 219 213
171 211 192 170 176 179 178 179 190 127 159 238 225 258 252 251 258 277 283 279 289 306 319 338 315 292 275 269 263 258 248 241 236 237 226 226 225 233 233 226 227 233 223 219
176 182 163 174 174 160 179 183 164 144 160 168 287 244 190 121 106 100 87 92 87 66 49 36 40 34 4 333 306 272 262 256 248 242 245 237 234 233 227 222 229 222 229 221
155 149 175 181 187 180 166 123 130 133 213 232 321 195 129 133 110 103 100 86 77 56 40 32 27 34 29 16 354 327 292 267 250 244 242 235 230 230 232 239 230 231 224 235
90 184 178 184 188 198 116 146 111 97 123 287 168 241 116 155 131 132 106 74 60 37 15 12 14 8 11 2 355 342 326 315 273 251 235 242 241 247 245 241 244 242 230 220
56 42 29 74 72 179 139 110 80 94 228 229 157 264 163 181 155 154 134 46 33 26 12 12 13 360 2 5 353 346 340 341 346 294 245 236 240 243 248 243 245 246 239 228
57 35 91 79 76 18 194 157 140 186 202 260 120 218 356 153 151 170 136 22 10 359 8 6 1 355 354 352 349 348 344 336 332 322 296 268 261 257 251 247 242 243 239 213
85 97 11 33 127 155 142 196 239 190 187 141 152 232 108 141 158 167 176 344 338 3 7 357 351 348 349 347 349 344 341 331 330 318 313 296 277 260 257 252 254 255 255 237
124 88 125 202 155 179 154 202 40 100 95 246 168 221 246 154 166 180 220 325 355 357 352 355 355 354 348 348 350 339 335 328 327 322 312 306 303 286 273 275 269 257 255 252
129 114 98 156 156 55 290 130 145 236 179 223 183 239 140 164 152 168 290 346 351 350 359 3 0 353 346 346 351 354 345 339 336 335 330 322 320 321 315 304 287 276 272 262
127 91 128 187 205 168 143 178 76 102 302 276 250 122 98 159 160 184 345 349 344 348 355 354 350 347 339 330 346 352 358 345 342 345 336 330 337 337 330 327 312 293 292 277
61 107 139 116 36 323 293 231 214 236 177 79 326 113 146 153 195 268 323 330 338 350 357 356 357 357 344 338 350 352 354 352 351 342 336 333 330 332 327 326 318 309 290 241
169 119 118 133 218 175 224 195 215 103 55 197 222 120 125 184 227 297 295 324 336 343 353 354 6 7 359 353 353 352 351 355 354 351 350 352 351 344 345 352 353 348 1 334
109 127 258 190 88 122 197 199 198 182 189 174 229 312 175 249 305 315 323 332 340 349 354 350 359 14 357 350 347 349 4 5 360 1 4 8 4 4 3 13 30 14 42 54
23 110 117 220 145 186 214 200 197 208 208 213 157 228 268 298 299 304 313 329 327 336 353 2 359 2 1 354 351 356 1 3 3 8 18 17 14 15 20 23 38 51 51 65
138 132 144 209 163 230 247 234 220 222 229 246 257 276 276 286 272 311 324 329 328 359 9 13 9 5 8 351 350 356 357 359 14 21 25 26 35 37 35 36 44 55 65 74
158 144 171 222 307 278 253 227 211 207 209 219 227 237 253 287 314 322 325 344 338 359 11 15 10 10 9 352 352 358 7 9 29 30 34 36 45 54 53 49 55 50 53 61
155 128 130 312 270 232 54 144 201 217 220 217 242 252 267 296 312 317 53 348 287 50 33 10 7 12 13 7 8 21 30 22 37 29 35 44 55 62 67 66 61 58 59 57
181 150 150 255 252 298 262 182 167 186 208 215 229 254 274 305 299 226 139 95 83 81 66 48 43 40 41 37 39 48 54 38 48 38 34 36 51 65 67 67 61 54 66 61
152 241 210 164 257 253 52 137 183 223 151 164 210 249 281 326 262 127 157 146 129 109 95 96 92 71 67 52 55 62 65 55 54 49 52 51 56 66 68 70 71 68 72 73
169 187 219 222 261 282 211 154 148 199 118 214 223 253 251 236 327 113 142 151 139 127 137 139 106 91 82 92 89 68 58 66 64 64 67 65 66 71 73 74 72 79 77 79
184 187 190 211 220 253 146 136 213 106 128 240 261 258 266 271 213 172 169 168 159 156 158 163 138 122 118 130 100 84 65 74 83 82 79 74 81 86 92 97 98 107 114 108
204 209 190 214 221 48 194 282 122 101 262 213 225 225 243 253 216 191 189 181 175 166 172 167 151 141 136 129 126 110 116 121 113 104 102 96 91 88 92 98 103 104 102 105
221 186 231 200 228 235 225 228 274 239 222 193 259 281 243 252 211 195 190 188 176 177 184 172 167 160 145 142 140 136 149 145 131 115 106 100 94 90 82 79 73 81 82 91
166 162 212 243 253 253 234 241 176 162 315 311 299 269 260 235 221 202 194 191 186 185 182 183 187 172 155 156 150 155 157 149 133 121 113 105 98 97 94 71 56 71 53 22
185 192 199 225 187 201 126 127 10 282 303 321 309 297 262 230 234 199 198 191 190 185 182 186 185 173 164 168 158 157 167 163 149 133 130 122 122 116 110 111 101 73 81 84